�������l�o���
Date,Time,MP-1(��Sv/h),MP-2(��Sv/h),MP-3(��Sv/h),MP-4(��Sv/h),MP-5(��Sv/h),MP-6(��Sv/h),MP-7(��Sv/h),����,����(m/s),���J
2013/07/17,00:00,0.9,0.6,0.9,0.8,0.8,0.4,0.3,�k,2.1,��
2013/07/17,00:10,0.9,0.6,0.9,0.8,0.8,0.4,0.3,�k,2.1,��
2013/07/17,00:20,0.9,0.6,0.9,0.8,0.8,0.4,0.3,�k,2.2,��
2013/07/17,00:30,0.9,0.6,0.9,0.8,0.8,0.4,0.3,�k,2.6,��
2013/07/17,00:40,0.9,0.6,0.9,0.8,0.8,0.4,0.3,�k,2.9,��
2013/07/17,00:50,0.9,0.6,0.9,0.8,0.8,0.4,0.3,�k,3.0,��
2013/07/17,01:00,0.9,0.6,0.9,0.8,0.8,0.4,0.3,�k�k��,3.1,��
2013/07/17,01:10,0.9,0.6,0.9,0.8,0.8,0.4,0.3,�k,2.4,��
2013/07/17,01:20,0.9,0.6,0.9,0.8,0.8,0.4,0.3,�k,1.9,��
2013/07/17,01:30,0.9,0.6,0.9,0.8,0.8,0.4,0.3,�k�k��,2.0,��
2013/07/17,01:40,0.9,0.6,0.9,0.8,0.8,0.4,0.3,�k,2.2,��
2013/07/17,01:50,0.9,0.6,0.9,0.8,0.8,0.4,0.3,�k,1.9,��
2013/07/17,02:00,0.9,0.6,0.9,0.8,0.8,0.4,0.3,�k�k��,1.3,��
2013/07/17,02:10,0.9,0.6,0.9,0.8,0.8,0.4,0.3,�k,1.4,��
2013/07/17,02:20,0.9,0.6,0.9,0.8,0.8,0.4,0.3,�k,1.7,��
2013/07/17,02:30,0.9,0.6,0.9,0.8,0.8,0.4,0.3,�k,1.6,��
2013/07/17,02:40,0.9,0.6,0.9,0.8,0.8,0.4,0.3,�k�k��,1.3,��
2013/07/17,02:50,0.9,0.6,0.9,0.8,0.8,0.4,0.3,�k,1.4,��
2013/07/17,03:00,0.9,0.6,0.9,0.8,0.8,0.4,0.3,�k,1.9,��
2013/07/17,03:10,0.9,0.6,0.9,0.8,0.8,0.4,0.3,�k,1.4,��
2013/07/17,03:20,0.9,0.6,0.9,0.8,0.8,0.4,0.3,�k�k��,1.9,��
2013/07/17,03:30,0.9,0.6,0.9,0.8,0.8,0.4,0.3,�k�k��,2.2,��
2013/07/17,03:40,0.9,0.6,0.9,0.8,0.8,0.4,0.3,�k,1.2,��
2013/07/17,03:50,0.9,0.6,0.9,0.8,0.8,0.4,0.3,�k,1.4,��
2013/07/17,04:00,0.9,0.6,0.9,0.8,0.8,0.4,0.3,�k,1.5,��
2013/07/17,04:10,0.9,0.6,0.9,0.8,0.8,0.4,0.3,�k,1.7,��
2013/07/17,04:20,0.9,0.6,0.9,0.8,0.8,0.4,0.3,�k,1.7,��
2013/07/17,04:30,0.9,0.6,0.9,0.8,0.8,0.4,0.3,�k,1.3,��
2013/07/17,04:40,0.9,0.6,0.9,0.8,0.8,0.4,0.3,�k,0.9,��
2013/07/17,04:50,0.9,0.6,0.9,0.8,0.8,0.4,0.3,�k�k��,1.5,��
2013/07/17,05:00,0.9,0.6,0.9,0.8,0.8,0.4,0.3,�k��,1.4,��
2013/07/17,05:10,0.9,0.6,0.9,0.8,0.8,0.4,0.3,�k�k��,1.0,��
2013/07/17,05:20,0.9,0.6,0.9,0.8,0.8,0.4,0.3,�k��,1.7,��
2013/07/17,05:30,0.9,0.6,0.9,0.8,0.8,0.4,0.3,�k�k��,1.4,��
2013/07/17,05:40,0.9,0.6,0.9,0.8,0.8,0.4,0.3,�k�k��,1.1,��
2013/07/17,05:50,0.9,0.6,0.9,0.8,0.8,0.4,0.3,�k��,1.2,��
2013/07/17,06:00,0.9,0.6,0.9,0.8,0.8,0.4,0.3,�k��,0.8,��
2013/07/17,06:10,0.9,0.6,0.9,0.8,0.8,0.4,0.3,���k��,0.5,��
2013/07/17,06:20,0.9,0.6,0.9,0.8,0.8,0.4,0.3,���k��,0.7,��
2013/07/17,06:30,0.9,0.6,0.9,0.8,0.8,0.4,0.3,���k��,0.9,��
2013/07/17,06:40,0.9,0.6,0.9,0.8,0.8,0.4,0.3,�k��,1.0,��
2013/07/17,06:50,0.9,0.6,0.9,0.8,0.8,0.4,0.3,-,CALM,��
2013/07/17,07:00,0.9,0.6,0.9,0.8,0.8,0.4,0.3,-,CALM,��
2013/07/17,07:10,0.9,0.6,0.9,0.8,0.8,0.4,0.3,���k��,1.2,��
2013/07/17,07:20,0.9,0.6,0.9,0.8,0.8,0.4,0.3,���k��,0.8,��
2013/07/17,07:30,0.9,0.6,0.9,0.8,0.8,0.4,0.3,��,1.2,��
2013/07/17,07:40,0.9,0.6,0.9,0.8,0.8,0.4,0.3,���k��,1.0,��
2013/07/17,07:50,0.9,0.6,0.9,0.8,0.8,0.4,0.3,���k��,1.2,��
2013/07/17,08:00,0.9,0.6,0.9,0.8,0.8,0.4,0.3,���k��,1.7,��
2013/07/17,08:10,0.9,0.6,0.9,0.8,0.8,0.4,0.3,��,1.6,��
2013/07/17,08:20,0.9,0.6,0.9,0.8,0.8,0.4,0.3,���k��,1.4,��
2013/07/17,08:30,0.9,0.6,0.9,0.8,0.8,0.4,0.3,���k��,2.1,��
2013/07/17,08:40,0.9,0.6,0.9,0.8,0.8,0.4,0.3,��,2.2,��
2013/07/17,08:50,0.9,0.6,0.9,0.8,0.8,0.4,0.3,��,2.2,��
2013/07/17,09:00,0.9,0.6,0.9,0.8,0.8,0.4,0.3,���k��,2.1,��
2013/07/17,09:10,0.9,0.6,0.9,0.8,0.8,0.4,0.3,��,2.2,��
2013/07/17,09:20,0.9,0.6,0.9,0.8,0.8,0.4,0.3,���k��,2.1,��
2013/07/17,09:30,0.9,0.6,0.9,0.8,0.8,0.4,0.3,��,1.2,��
2013/07/17,09:40,0.9,0.6,0.9,0.8,0.8,0.4,0.3,���k��,3.0,��
2013/07/17,09:50,0.9,0.6,0.9,0.8,0.8,0.4,0.3,���쓌,1.0,��
2013/07/17,10:00,0.9,0.6,0.9,0.8,0.8,0.4,0.3,���쓌,1.1,��
2013/07/17,10:10,0.9,0.6,0.9,0.8,0.8,0.4,0.3,��,1.1,��
2013/07/17,10:20,0.9,0.6,0.9,0.8,0.8,0.4,0.3,��,1.7,��
2013/07/17,10:30,0.9,0.6,0.9,0.8,0.8,0.4,0.3,���쓌,1.0,��
2013/07/17,10:40,0.9,0.6,0.9,0.8,0.8,0.4,0.3,��,1.2,��
2013/07/17,10:50,0.9,0.6,0.9,0.8,0.8,0.4,0.3,���k��,1.8,��
2013/07/17,11:00,0.9,0.6,0.9,0.8,0.8,0.4,0.3,��,1.6,��
2013/07/17,11:10,0.9,0.6,0.9,0.8,0.8,0.4,0.3,���쓌,1.6,��
2013/07/17,11:20,0.9,0.6,0.9,0.8,0.8,0.4,0.3,���k��,0.9,��
2013/07/17,11:30,0.9,0.6,0.9,0.8,0.8,0.4,0.3,���쓌,0.5,��
2013/07/17,11:40,0.9,0.6,0.9,0.8,0.8,0.4,0.3,���쓌,0.6,��
2013/07/17,11:50,0.9,0.6,0.9,0.8,0.8,0.4,0.3,-,CALM,��
2013/07/17,12:00,0.9,0.6,0.9,0.8,0.8,0.4,0.3,��,0.9,��
2013/07/17,12:10,0.9,0.6,0.9,0.8,0.8,0.4,0.3,��쓌,0.5,��
2013/07/17,12:20,0.9,0.6,0.9,0.8,0.8,0.4,0.3,��,0.5,��
2013/07/17,12:30,0.9,0.6,0.9,0.8,0.8,0.4,0.3,��,1.0,��
2013/07/17,12:40,0.9,0.6,0.9,0.8,0.8,0.4,0.3,��쓌,0.9,��
2013/07/17,12:50,0.9,0.6,0.9,0.8,0.8,0.4,0.3,��,0.7,��
2013/07/17,13:00,0.9,0.6,0.9,0.8,0.8,0.4,0.3,��,1.2,��
2013/07/17,13:10,0.9,0.6,0.9,0.8,0.8,0.4,0.3,��,0.9,��
2013/07/17,13:20,0.9,0.6,0.9,0.8,0.8,0.4,0.3,��,0.5,��
2013/07/17,13:30,0.9,0.6,0.9,0.8,0.8,0.4,0.3,���k��,1.4,��
2013/07/17,13:40,0.9,0.6,0.9,0.8,0.8,0.4,0.3,-,CALM,��
2013/07/17,13:50,0.9,0.6,0.9,0.8,0.8,0.4,0.3,���k��,1.0,��
2013/07/17,14:00,0.9,0.6,0.9,0.8,0.8,0.4,0.3,�k�k��,2.2,��
2013/07/17,14:10,0.9,0.6,0.9,0.8,0.8,0.4,0.3,�k��,1.5,��
2013/07/17,14:20,0.9,0.6,0.9,0.8,0.8,0.4,0.3,�k,1.6,��
2013/07/17,14:30,0.9,0.6,0.9,0.8,0.8,0.4,0.3,�k�k��,1.9,��
2013/07/17,14:40,0.9,0.6,0.9,0.8,0.8,0.4,0.3,�k,0.8,��
2013/07/17,14:50,0.9,0.6,0.9,0.8,0.8,0.4,0.3,�k�k��,1.3,��
2013/07/17,15:00,0.9,0.6,0.9,0.8,0.8,0.4,0.3,�k�k��,1.2,��
2013/07/17,15:10,0.9,0.6,0.9,0.8,0.8,0.4,0.3,�k��,1.0,��
2013/07/17,15:20,0.9,0.6,0.9,0.8,0.8,0.4,0.3,�k�k��,1.0,��
2013/07/17,15:30,0.9,0.6,0.9,0.8,0.8,0.4,0.3,���k��,1.0,��
2013/07/17,15:40,0.9,0.6,0.9,0.8,0.8,0.4,0.3,�k��,1.0,��
2013/07/17,15:50,0.9,0.6,0.9,0.8,0.8,0.4,0.3,�k�k��,1.3,��
2013/07/17,16:00,0.9,0.6,0.9,0.8,0.8,0.4,0.3,�k,1.7,��
2013/07/17,16:10,0.9,0.6,0.9,0.8,0.8,0.4,0.3,�k��,1.2,��
2013/07/17,16:20,0.9,0.6,0.9,0.8,0.8,0.4,0.3,�k��,2.3,��
2013/07/17,16:30,0.9,0.6,0.9,0.8,0.8,0.4,0.3,�k�k��,2.1,��
2013/07/17,16:40,0.9,0.6,0.9,0.8,0.8,0.4,0.3,�k�k��,1.4,��
2013/07/17,16:50,0.9,0.6,0.9,0.8,0.8,0.4,0.3,�k�k��,2.2,�L
2013/07/17,17:00,0.9,0.6,0.9,0.8,0.8,0.4,0.3,�k�k��,2.9,�L
2013/07/17,17:10,0.9,0.6,0.9,0.8,0.8,0.4,0.3,�k�k��,1.7,�L
2013/07/17,17:20,0.9,0.6,0.9,0.8,0.8,0.4,0.3,�k��,0.7,�L
2013/07/17,17:30,0.9,0.6,0.9,0.8,0.8,0.4,0.3,-,CALM,�L
2013/07/17,17:40,0.9,0.6,0.9,0.8,0.8,0.4,0.3,-,CALM,�L
2013/07/17,17:50,0.9,0.6,0.9,0.8,0.8,0.4,0.3,-,CALM,�L
2013/07/17,18:00,0.9,0.6,0.9,0.8,0.8,0.4,0.3,���쐼,0.7,�L
2013/07/17,18:10,0.9,0.6,0.9,0.8,0.8,0.4,0.3,��,1.0,�L
2013/07/17,18:20,0.9,0.6,0.9,0.8,0.8,0.4,0.3,��쓌,1.7,�L
2013/07/17,18:30,0.9,0.6,0.9,0.8,0.8,0.4,0.3,��쓌,1.6,�L
2013/07/17,18:40,0.9,0.6,0.9,0.8,0.8,0.4,0.3,��,1.3,�L
2013/07/17,18:50,0.9,0.6,0.9,0.8,0.8,0.4,0.3,��쓌,2.0,�L
2013/07/17,19:00,0.9,0.6,0.9,0.8,0.8,0.4,0.3,��,1.2,�L
2013/07/17,19:10,0.9,0.6,0.9,0.8,0.8,0.4,0.3,���쓌,1.9,�L
2013/07/17,19:20,0.9,0.6,0.9,0.8,0.8,0.4,0.3,��,5.3,�L
2013/07/17,19:30,0.9,0.6,0.9,0.8,0.8,0.4,0.3,��쓌,4.8,�L
2013/07/17,19:40,0.9,0.6,0.9,0.8,0.8,0.4,0.3,�쓌,3.2,�L
2013/07/17,19:50,0.9,0.6,0.9,0.8,0.8,0.4,0.3,��,3.6,�L
2013/07/17,20:00,0.9,0.6,0.9,0.8,0.8,0.4,0.3,��,3.9,�L
2013/07/17,20:10,0.9,0.6,0.9,0.8,0.8,0.4,0.3,��쓌,2.2,�L
2013/07/17,20:20,0.9,0.6,0.9,0.8,0.8,0.4,0.3,��쐼,7.7,�L
2013/07/17,20:30,0.9,0.6,0.9,0.8,0.8,0.4,0.3,��쓌,3.4,�L
2013/07/17,20:40,0.9,0.6,0.9,0.8,0.8,0.4,0.3,�쓌,1.5,�L
2013/07/17,20:50,0.9,0.6,0.9,0.8,0.8,0.4,0.3,��,3.0,�L
2013/07/17,21:00,0.9,0.6,0.9,0.8,0.8,0.4,0.3,��쓌,4.0,�L
2013/07/17,21:10,0.9,0.6,0.9,0.8,0.8,0.4,0.3,��,3.6,�L
2013/07/17,21:20,0.9,0.6,0.9,0.8,0.8,0.4,0.3,��,3.1,�L
2013/07/17,21:30,0.9,0.6,0.9,0.8,0.8,0.4,0.3,��,2.8,�L
2013/07/17,21:40,0.9,0.6,0.9,0.8,0.8,0.4,0.3,��쓌,2.2,�L
2013/07/17,21:50,0.9,0.6,0.9,0.8,0.8,0.4,0.3,��쓌,2.4,�L
2013/07/17,22:00,0.9,0.6,0.9,0.8,0.8,0.4,0.3,��쓌,2.0,�L
2013/07/17,22:10,0.9,0.6,0.9,0.8,0.8,0.4,0.3,��쓌,1.7,�L
2013/07/17,22:20,0.9,0.6,0.9,0.8,0.8,0.4,0.3,��쓌,1.6,�L
2013/07/17,22:30,0.9,0.6,0.9,0.8,0.8,0.4,0.3,��쓌,1.9,�L
2013/07/17,22:40,0.9,0.6,0.9,0.8,0.8,0.4,0.3,��,2.2,�L
2013/07/17,22:50,0.9,0.6,0.9,0.8,0.8,0.4,0.3,��쓌,2.2,�L
2013/07/17,23:00,0.9,0.6,0.9,0.8,0.8,0.4,0.3,��,2.5,�L
2013/07/17,23:10,0.9,0.6,0.9,0.8,0.8,0.4,0.3,��쓌,3.1,�L
2013/07/17,23:20,0.9,0.6,0.9,0.8,0.8,0.4,0.3,��쓌,2.5,�L
2013/07/17,23:30,0.9,0.6,0.9,0.8,0.8,0.4,0.3,��,1.4,�L
2013/07/17,23:40,0.9,0.6,0.9,0.8,0.8,0.4,0.3,��쐼,2.1,�L
2013/07/17,23:50,0.9,0.6,0.9,0.8,0.8,0.4,0.3,�k�k��,3.6,�L
